Benson, MN

5:44 PM CDT on March 29, 2017 (GMT -0500)
Benson Municipal

Weather History for KBBB - June, 2012

Change the Weather History Date:

Saturday, June 30, 2012

  Actual Average Record
Temperature  
Mean Temperature 74 °F -  
Max Temperature 91 °F 80 °F 98 °F (1963)
Min Temperature 57 °F 59 °F 6 °F (1999)
Cooling Degree Days 9    
Growing Degree Days 24 (Base 50)    
Moisture  
Dew Point 63 °F    
Average Humidity 69    
Maximum Humidity 100    
Minimum Humidity 31    
Precipitation  
Precipitation 0.00 in - - ()
Sea Level Pressure  
Sea Level Pressure 29.87 in    
Wind  
Wind Speed 2 mph (SE)    
Max Wind Speed 9 mph    
Max Gust Speed -    
Visibility 7 miles    
Events Fog    
Averages and records for this station are not official NWS values.
T = Trace of Precipitation, MM = Missing Value Source: NWS Daily Summary

Daily Weather History Graph

Daily Weather History Graph

Search for Another Location

Airport or City:

Trip Planner

Search our weather history database for the weather conditions in past years. The results will help you decide how hot, cold, wet, or windy it might be!

Date:

Astronomy

Jun. 30, 2012 Rise Set
Actual Time 5:38 AM CDT 9:14 PM CDT
Civil Twilight 5:00 AM CDT 9:51 PM CDT
Nautical Twilight 4:10 AM CDT 10:41 PM CDT
Astronomical Twilight 3:04 AM CDT 11:47 PM CDT
Moon 6:09 PM CDT (6/30) 2:38 AM CDT (6/30)
Length of Visible Light 16h 51m
Length of Day
15h 36m
Waxing Gibbous, 87% of the Moon is Illuminated
Jun 30
Waxing Gibbous
Jul 3
Full
Jul 10
Last Quarter
Jul 18
New
Jul 26
First Quarter

Hourly Weather History & Observations

Time (CDT) Temp. Heat Index Dew Point Humidity Pressure Visibility Wind Dir Wind Speed Gust Speed Precip Events Conditions
12:12 AM 64.4 °F - 64.4 °F 100% 29.84 in 0.8 mi NNE 3.5 mph - N/A   Mostly Cloudy
12:33 AM 62.6 °F - 62.6 °F 100% 29.84 in 0.2 mi Calm Calm - N/A Fog Fog
12:52 AM 62.6 °F - 62.6 °F 100% 29.84 in 0.2 mi NE 3.5 mph - N/A Fog Fog
1:12 AM 64.4 °F - 62.6 °F 94% 29.85 in 0.2 mi Calm Calm - N/A Fog Fog
1:33 AM 64.4 °F - 62.6 °F 94% 29.85 in 0.2 mi Calm Calm - N/A Fog Fog
1:52 AM 62.6 °F - 62.6 °F 100% 29.85 in 1.0 mi Calm Calm - N/A   Overcast
2:12 AM 60.8 °F - 60.8 °F 100% 29.85 in 0.2 mi Calm Calm - N/A Fog Fog
2:33 AM 60.8 °F - 60.8 °F 100% 29.84 in 0.2 mi Calm Calm - N/A Fog Fog
2:52 AM 60.8 °F - 60.8 °F 100% 29.84 in 0.2 mi Calm Calm - N/A Fog Fog
3:13 AM 60.8 °F - 59.0 °F 94% 29.84 in 0.2 mi Calm Calm - N/A Fog Fog
3:52 AM 59.0 °F - 59.0 °F 100% 29.85 in 0.2 mi Calm Calm - N/A Fog Fog
4:13 AM 57.2 °F - 57.2 °F 100% 29.85 in 0.2 mi NE 3.5 mph - N/A Fog Fog
4:52 AM 59.0 °F - 57.2 °F 94% 29.85 in 0.2 mi Calm Calm - N/A Fog Fog
5:13 AM 59.0 °F - 57.2 °F 94% 29.85 in 0.2 mi Calm Calm - N/A Fog Fog
5:32 AM 57.2 °F - 57.2 °F 100% 29.85 in 0.2 mi Calm Calm - N/A Fog Fog
6:32 AM 57.2 °F - 57.2 °F 100% 29.87 in 0.2 mi Calm Calm - N/A Fog Fog
6:53 AM 60.8 °F - 59.0 °F 94% 29.87 in 0.5 mi Calm Calm - N/A Fog Fog
7:13 AM 64.4 °F - 64.4 °F 100% 20.01 in 2.0 mi ENE 4.6 mph - N/A   Mostly Cloudy
7:32 AM 66.2 °F - 66.2 °F 100% 29.87 in 5.0 mi NE 5.8 mph - N/A   Clear
7:53 AM 68.0 °F - 68.0 °F 100% 29.87 in 10.0 mi Calm Calm - N/A   Clear
8:13 AM 69.8 °F - 68.0 °F 94% 29.89 in 10.0 mi Calm Calm - N/A   Clear
8:32 AM 71.6 °F - 66.2 °F 83% 29.88 in 10.0 mi East 3.5 mph - N/A   Clear
8:53 AM 75.2 °F - 62.6 °F 65% 29.88 in 10.0 mi East 4.6 mph - N/A   Clear
9:12 AM 75.2 °F - 62.6 °F 65% 29.87 in 10.0 mi ESE 6.9 mph - N/A   Clear
9:32 AM 78.8 °F - 62.6 °F 57% 29.89 in 10.0 mi East 3.5 mph - N/A   Clear
9:53 AM 78.8 °F - 62.6 °F 57% 29.90 in 10.0 mi ESE 3.5 mph - N/A   Clear
10:12 AM 80.6 °F 81.5 °F 60.8 °F 51% 29.90 in 10.0 mi SE 3.5 mph - N/A   Clear
10:32 AM 80.6 °F 81.8 °F 62.6 °F 54% 29.89 in 10.0 mi SE 5.8 mph - N/A   Clear
10:53 AM 80.6 °F 81.8 °F 62.6 °F 54% 29.89 in 10.0 mi SE 3.5 mph - N/A   Clear
11:12 AM 82.4 °F 83.4 °F 62.6 °F 51% 29.89 in 10.0 mi ESE 3.5 mph - N/A   Clear
11:33 AM 84.2 °F 85.0 °F 62.6 °F 48% 29.89 in 10.0 mi Calm Calm - N/A   Clear
11:53 AM 84.2 °F 85.0 °F 62.6 °F 48% 29.89 in 10.0 mi South 3.5 mph - N/A   Clear
12:12 PM 87.8 °F 87.6 °F 60.8 °F 40% 29.90 in 10.0 mi Calm Calm - N/A   Clear
12:33 PM 87.8 °F 87.1 °F 59.0 °F 38% 29.91 in 10.0 mi Calm Calm - N/A   Clear
12:53 PM 87.8 °F 87.6 °F 60.8 °F 40% 29.91 in 10.0 mi North 3.5 mph - N/A   Clear
1:12 PM 89.6 °F 88.1 °F 57.2 °F 33% 29.90 in 10.0 mi North 3.5 mph - N/A   Clear
1:52 PM 89.6 °F 90.1 °F 62.6 °F 40% 29.88 in 10.0 mi SSW 6.9 mph - N/A   Clear
2:12 PM 89.6 °F 88.9 °F 59.0 °F 36% 29.88 in 10.0 mi SE 4.6 mph - N/A   Clear
2:33 PM 89.6 °F 87.7 °F 55.4 °F 31% 29.87 in 10.0 mi Calm Calm - N/A   Clear
2:52 PM 91.4 °F 90.7 °F 59.0 °F 34% 29.87 in 10.0 mi Calm Calm - N/A   Clear
3:12 PM 89.6 °F 88.9 °F 59.0 °F 36% 29.86 in 10.0 mi SSE 3.5 mph - N/A   Clear
3:33 PM 89.6 °F 89.5 °F 60.8 °F 38% 29.84 in 10.0 mi South 6.9 mph - N/A   Clear
3:52 PM 87.8 °F 88.5 °F 62.6 °F 43% 29.83 in 10.0 mi SSW 9.2 mph - N/A   Clear
4:13 PM 87.8 °F 89.4 °F 64.4 °F 46% 29.83 in 10.0 mi South 6.9 mph - N/A   Clear
4:33 PM 87.8 °F 88.5 °F 62.6 °F 43% 29.83 in 10.0 mi SW 8.1 mph - N/A   Clear
4:52 PM 87.8 °F 88.5 °F 62.6 °F 43% 29.84 in 10.0 mi SSW 6.9 mph - N/A   Clear
5:13 PM 87.8 °F 88.5 °F 62.6 °F 43% 29.85 in 10.0 mi SW 3.5 mph - N/A   Clear
5:33 PM 87.8 °F 88.5 °F 62.6 °F 43% 29.85 in 10.0 mi WSW 4.6 mph - N/A   Clear
5:52 PM 86.0 °F 86.6 °F 62.6 °F 45% 29.85 in 10.0 mi SW 3.5 mph - N/A   Clear
6:13 PM 86.0 °F 87.3 °F 64.4 °F 48% 29.85 in 10.0 mi SW 4.6 mph - N/A   Clear
6:32 PM 86.0 °F 86.6 °F 62.6 °F 45% 29.86 in 10.0 mi Calm Calm - N/A   Clear
6:52 PM 84.2 °F 85.0 °F 62.6 °F 48% 29.86 in 10.0 mi South 3.5 mph - N/A   Clear
7:13 PM 84.2 °F 85.0 °F 62.6 °F 48% 29.87 in 10.0 mi Calm Calm - N/A   Clear
7:33 PM 82.4 °F 83.9 °F 64.4 °F 54% 29.88 in 10.0 mi Calm Calm - N/A   Clear
7:52 PM 80.6 °F 83.9 °F 69.8 °F 70% 29.87 in 10.0 mi Calm Calm - N/A   Clear
8:13 PM 80.6 °F 82.7 °F 66.2 °F 61% 29.87 in 10.0 mi Calm Calm - N/A   Clear
8:32 PM 80.6 °F 82.7 °F 66.2 °F 61% 29.87 in 10.0 mi Calm Calm - N/A   Clear
8:53 PM 75.2 °F - 66.2 °F 73% 29.86 in 10.0 mi Calm Calm - N/A   Clear
9:13 PM 73.4 °F - 68.0 °F 83% 29.87 in 10.0 mi Calm Calm - N/A   Clear
9:32 PM 73.4 °F - 66.2 °F 78% 29.87 in 10.0 mi Calm Calm - N/A   Clear
9:53 PM 71.6 °F - 66.2 °F 83% 29.88 in 10.0 mi Calm Calm - N/A   Clear
10:13 PM 69.8 °F - 66.2 °F 88% 29.88 in 10.0 mi Calm Calm - N/A   Clear
10:32 PM 73.4 °F - 66.2 °F 78% 29.87 in 10.0 mi SE 4.6 mph - N/A   Clear
10:53 PM 71.6 °F - 66.2 °F 83% 29.88 in 10.0 mi Calm Calm - N/A   Clear
11:12 PM 69.8 °F - 66.2 °F 88% 29.88 in 10.0 mi Calm Calm - N/A   Clear
11:32 PM 71.6 °F - 66.2 °F 83% 29.87 in 7.0 mi Calm Calm - N/A   Clear
11:53 PM 71.6 °F - 66.2 °F 83% 29.86 in 10.0 mi ESE 5.8 mph - N/A   Clear